SCP
0 0 0 0 0 0 0 0 0 0 0 0 0 0 0 0 0 0 0 0 0 0 0 0 0 0 0 0 0 0 0 0 0 0 0 0 0 0 0 0 0 0 0
0 0 0 0 0 0 0 0 0 0 0 0 0 0 0 0 0 0 0 0 0 0 0 0 0 0 0 0 0 0 0 0 0 0 0 0 0 0 0 0 0 0 0
0 0 0 0 0 0 0 0 0 0 0 0 0 0 0 0 0 0 0 0 0 0 0 0 0 0 0 0 0 0 0 0 0 0 0 0 0 0 0 0 0 -0 0
0 0 0 0 0 0 0 0 0 0 0 0 0 0 0 0 0 0 0 0 -0 0 0 -0 -0 0 0 0 0 0 0 0 0 0 0 0 0 0 0 0 0 0 0
0 0 0 0 0 0 0 0 0 0 0 0 0 0 0 0 0 0 -0 0 -0 0 0 0 -0 -0 0 0 0 0 0 0 0 0 0 0 0 0 0 0 0 0 0
0 0 0 0 0 0 0 0 0 0 0 0 0 0 -0 0 -0 0 0 0 0 0 0 0 -0 -0 0 0 0 0 0 0 0 0 0 0 0 0 0 0 0 0 0
0 0 0 0 0 0 0 0 0 0 0 0 0 0 0 -0 0 0 0 0 0 0 0 -0 0 0 0 0 0 0 0 0 0 0 0 0 0 0 0 0 0 0 0
0 0 0 0 0 0 0 0 0 0 0 0 0 0 0 0 0 -0 -0 0 -0 -0 -0 -0 0 0 0 0 0 0 0 0 0 0 0 0 0 0 0 0 0 0 0
0 0 0 0 0 0 0 0 0 0 0 0 0 0 0 0 -0 -0 0 0 -0 -0 -0 -0 -0 0 0 0 0 0 0 0 0 0 0 0 0 0 0 0 0 0 0
0 0 0 0 0 0 0 0 0 0 0 0 0 0 0 0 -0 -0 -0 0 0 0 0 0 -0 -0 -0 -0 -0 0 0 0 0 0 0 0 0 0 0 0 0 0 0
0 0 0 0 0 0 0 0 0 0 0 0 0 0 0 0 0 -0 -0 0 0 0 0 0 0 -0 -0 -0 -0 -0 -0 0 0 0 0 0 0 0 0 0 0 0 0
0 0 0 0 0 0 0 0 0 0 0 0 0 0 0 0 0 0 -0 -0 0 0 0 0 0 -0 -0 -0 -0 -0 -0 -0 0 0 0 0 0 0 0 0 0 0 0
0 0 0 0 0 0 0 0 0 0 0 0 0 0 0 0 0 -0 0 0 0 -0 0 0 -0 -0 -0 -0 -0 -0 -0 0 0 -0 -0 0 0 0 0 0 0 0 0
0 0 0 0 0 0 0 0 0 0 0 0 0 0 0 0 0 0 0 0 0 0 0 0 0 -0 -0 -0 -0 -0 -0 0 0 0 0 0 0 0 0 0 0 0 0
0 0 0 0 0 0 0 -0 0 0 0 0 0 0 0 0 0 0 0 0 0 0 0 0 0 0 0 0 0 0 -0 -0 -0 0 0 0 0 0 0 0 0 0 0
0 0 0 0 0 0 0 0 -0 0 -0 -0 -0 0 0 0 0 0 0 -0 -0 0 0 0 0 0 0 0 0 0 0 0 0 0 0 0 0 0 0 0 0 0 0
0 0 0 0 0 0 0 0 0 0 -0 -0 -0 -0 -0 -0 -0 0 0 0 0 0 0 0 0 0 0 0 0 0 0 0 0 0 -0 -0 -0 -0 -0 0 0 0 0
0 0 0 0 0 0 0 0 0 0 -0 -0 0 0 -0 -0 -0 0 0 0 0 0 0 0 0 0 0 0 0 0 0 0 0 0 -0 -0 -0 -0 -0 -0 0 0 0
0 0 0 0 0 0 0 0 0 0 0 -0 -0 -0 -0 0 0 -0 -0 0 0 0 0 0 0 0 0 0 0 0 0 0 0 0 0 0 0 0 0 0 0 0 0
0 0 0 0 0 0 0 0 0 0 0 0 0 0 0 0 0 0 0 0 0 0 0 0 0 0 0 0 0 0 0 0 0 0 0 0 0 0 0 0 0 0 0
0 0 0 0 0 0 0 0 0 0 0 0 0 0 0 0 0 0 0 0 0 0 0 0 0 0 0 0 0 0 0 0 0 0 0 0 0 0 0 0 0 0 0
0 0 0 0 0 0 0 0 0 0 0 0 0 0 0 0 0 0 0 0 0 0 0 0 0 0 0 0 0 0 0 0 0 0 0 0 0 0 0 0 0 0 0
0 0 0 0 0 0 0 0 0 0 0 0 0 0 0 0 0 0 0 0 0 0 0 0 0 0 0 0 0 0 0 0 0 0 0 0 0 0 0 0 0 0 0
0 0 0 0 0 0 0 0 0 0 0 0 0 0 0 0 0 0 0 0 0 0 0 0 0 0 0 0 0 0 0 0 0 0 0 0 0 0 0 0 0 0 0
0 0 0 0 0 0 0 0 0 0 0 0 0 0 0 0 0 0 0 0 0 0 0 0 0 0 0 0 0 0 0 0 0 0 0 0 0 0 0 0 0 0 0
0 0 0 0 0 0 0 0 0 0 0 0 0 0 0 0 0 0 0 0 0 0 0 0 0 0 0 0 0 0 0 0 0 0 0 0 0 0 0 0 0 0 0
Wind_Speed_500mb
42 46 55 56 54 48 44 46 45 42 45 43 43 47 45 44 45 49 52 53 53 56 63 66 71 65 71 78 75 74 76 77 76 67 66 70 55 60 61 61 55 60 69
38 46 52 52 49 44 42 39 36 40 40 39 41 44 43 44 42 44 49 50 54 56 56 60 70 66 73 69 73 72 73 77 75 69 65 57 62 49 50 59 67 68 72
35 44 49 47 43 40 38 36 33 36 35 35 38 41 43 45 47 44 46 48 50 50 54 63 66 62 57 62 64 67 69 69 73 73 72 70 64 62 50 37 45 43 54
32 41 44 43 40 36 34 35 35 32 35 36 37 40 41 43 48 45 45 46 47 48 48 51 54 53 63 58 59 59 51 61 74 71 71 69 72 69 63 51 48 38 59
27 37 41 38 35 33 29 29 28 28 30 32 33 34 35 37 36 42 42 40 41 39 38 44 48 41 52 48 56 54 58 55 51 68 74 70 71 66 61 56 56 46 38
25 33 39 30 29 28 27 25 26 27 29 28 26 29 30 28 28 34 32 33 32 29 32 35 37 36 40 39 40 50 56 51 50 31 68 69 71 59 55 53 49 44 32
24 25 29 26 22 24 28 26 25 26 28 28 26 25 29 27 28 26 23 23 25 26 28 29 22 21 25 26 28 27 36 46 45 38 42 45 57 46 41 50 54 47 34
22 19 15 20 22 22 25 26 25 24 27 28 27 25 25 27 26 23 20 16 15 14 15 14 13 11 13 16 18 19 25 29 32 46 32 42 35 40 43 37 43 39 25
24 22 22 22 22 21 22 24 25 24 22 24 24 27 30 30 27 26 21 21 23 27 35 33 19 7 4 8 11 14 19 24 22 32 40 32 36 24 39 41 52 56 56
25 23 25 24 21 19 17 16 20 22 23 22 22 27 30 33 33 31 32 36 41 46 52 52 46 35 15 5 5 10 14 16 19 27 33 29 23 18 27 37 48 57 68
25 22 23 22 21 16 16 13 13 13 16 18 24 26 27 28 30 30 33 35 40 42 47 52 53 47 41 29 18 13 13 19 23 29 34 31 22 19 26 32 37 52 64
25 23 23 19 20 14 15 13 7 9 6 8 12 20 26 26 26 28 31 32 31 32 40 41 40 41 45 48 46 36 26 23 30 33 36 37 31 25 23 25 34 39 44
27 25 23 18 19 14 12 12 4 3 4 4 8 16 23 28 32 33 33 33 32 34 37 35 31 36 40 46 45 44 42 38 39 42 45 43 37 32 30 32 32 34 32
31 29 25 21 21 16 15 13 8 4 1 1 6 15 19 21 26 29 31 32 34 34 34 32 32 34 38 42 43 48 55 55 57 58 56 51 46 45 43 38 34 41 40
38 34 30 26 22 21 18 17 12 7 5 5 10 14 16 17 23 24 23 26 28 30 28 27 30 34 38 41 41 41 44 48 52 54 52 51 50 48 47 43 42 43 49
48 41 37 33 28 27 25 22 17 13 10 9 10 13 14 17 19 18 19 22 25 24 19 27 33 36 40 39 38 39 39 39 39 36 36 35 35 36 40 41 42 45 52
56 49 43 41 37 33 31 25 21 17 14 11 12 11 11 13 14 15 15 18 19 18 20 28 32 34 36 36 36 35 37 39 35 34 35 36 36 38 38 40 40 41 47
61 56 50 47 44 39 34 31 27 22 18 16 13 13 10 8 9 11 11 13 14 16 20 24 28 30 30 31 31 31 32 31 30 31 32 34 33 32 34 36 35 34 35
66 67 59 54 52 45 40 38 34 29 24 22 18 14 13 11 7 5 7 9 10 13 17 18 22 23 22 23 24 24 24 26 26 23 25 26 28 24 28 29 29 28 27
68 71 64 61 59 55 51 45 41 36 32 28 24 19 16 12 7 4 2 1 2 4 7 9 11 12 14 17 19 19 17 19 19 19 21 21 23 22 24 24 23 23 23
71 77 73 68 66 64 58 51 43 39 34 30 27 22 14 10 10 8 7 6 5 3 1 1 1 3 6 8 10 12 11 12 13 13 14 15 15 14 15 15 15 15 15
74 81 83 77 73 70 65 57 49 44 38 35 29 24 21 19 17 15 13 11 10 9 7 5 3 2 1 2 3 5 6 6 6 7 8 9 10 11 11 12 12 13 14
79 83 88 83 77 72 68 62 56 50 42 36 31 28 24 23 23 21 18 18 16 15 13 11 11 9 7 5 3 2 2 2 2 2 3 6 7 9 10 10 9 10 11
84 86 91 86 81 76 72 66 61 53 46 41 36 33 29 28 27 26 23 22 22 21 19 18 17 15 14 13 9 8 8 8 8 9 10 10 10 10 8 8 8 9 10
86 88 92 90 82 76 72 67 62 56 51 45 40 36 33 32 31 29 27 26 26 25 23 21 21 21 20 18 17 16 14 14 15 16 17 17 15 14 13 12 11 12 13
85 87 88 87 81 77 72 69 64 58 53 47 41 37 34 32 31 31 29 28 27 27 26 25 25 26 25 23 21 20 19 19 19 20 21 21 20 19 17 16 15 15 18
Wind_Direction_500mb
311 314 318 320 318 313 307 306 303 307 305 307 304 299 295 294 293 291 286 284 277 274 271 267 266 276 271 258 258 256 253 252 253 257 258 257 257 241 246 248 247 262 258
313 319 323 321 317 315 309 308 311 307 305 306 304 304 303 298 293 290 288 281 281 277 273 272 269 273 273 260 253 254 254 251 249 252 256 259 251 251 250 239 242 254 252
316 323 326 324 324 317 312 312 308 308 307 307 303 299 301 300 301 300 297 289 281 281 278 277 271 267 270 261 256 255 250 249 247 248 252 248 251 243 241 254 257 259 252
318 328 330 333 330 325 322 320 315 313 311 307 304 302 300 298 296 301 297 296 292 285 283 279 273 263 258 262 250 246 244 246 247 244 242 243 244 252 241 244 262 275 264
314 332 339 337 337 336 332 328 328 327 323 321 321 317 312 305 307 305 303 308 303 294 288 285 274 266 243 253 251 252 243 253 233 241 239 237 237 240 241 226 234 230 237
304 331 339 343 344 347 342 340 339 341 342 342 344 340 335 332 325 315 310 305 308 305 301 296 274 268 256 245 254 249 245 247 248 273 225 229 232 239 232 221 220 205 215
297 319 340 349 346 357 355 355 353 351 352 359 358 354 356 358 350 344 342 324 311 305 298 299 289 265 248 242 247 251 249 248 244 239 239 242 235 231 218 222 206 210 217
287 293 322 358 356 5 8 3 7 5 7 10 9 8 18 18 8 4 359 356 351 356 352 327 304 284 252 240 242 248 251 246 247 230 238 246 243 228 215 208 206 201 183
280 279 282 309 323 352 12 10 8 15 20 18 19 23 32 38 30 32 35 43 49 55 57 47 35 8 259 232 226 240 242 234 235 234 241 232 234 216 220 201 198 187 167
279 277 282 297 310 307 321 355 13 17 20 19 25 33 38 46 52 50 56 64 62 57 55 52 47 46 51 94 198 184 179 173 188 201 213 215 207 189 169 207 190 186 173
280 275 278 290 293 306 316 323 323 336 14 29 35 39 41 42 46 48 50 48 46 49 52 49 46 47 60 72 91 123 140 137 147 163 187 196 199 172 166 167 182 193 183
278 272 271 276 282 286 298 299 344 350 342 12 44 33 40 49 51 47 49 51 53 57 60 59 56 52 58 63 67 73 86 123 134 132 133 140 155 165 172 172 181 186 186
271 266 263 263 268 264 270 274 258 342 8 30 55 51 51 53 54 54 54 52 53 54 57 61 64 65 66 73 76 80 86 95 110 120 116 114 122 132 134 148 160 176 183
261 261 253 249 255 248 253 258 251 224 272 33 82 74 63 62 64 62 61 60 58 60 61 61 59 64 70 73 79 80 82 84 89 93 98 105 114 123 128 131 140 142 144
251 252 246 239 239 240 237 243 234 201 169 120 102 93 84 74 69 66 66 68 63 59 60 69 74 74 75 78 80 81 83 87 87 92 97 103 106 112 119 130 137 145 142
244 244 241 232 228 234 227 226 215 190 157 123 103 98 88 82 77 69 66 67 64 62 62 68 72 75 77 76 75 79 82 83 88 94 97 100 104 107 109 112 121 129 131
241 238 234 227 221 224 229 222 211 187 170 147 126 112 98 86 82 74 68 70 72 68 65 76 76 74 73 73 76 79 81 81 83 87 91 95 100 105 112 116 120 125 127
237 232 232 228 219 219 222 215 209 194 181 168 154 142 129 118 103 90 79 70 64 63 58 63 66 67 70 73 75 76 76 80 83 86 90 91 91 96 104 108 113 119 126
232 226 226 223 219 216 215 215 211 201 192 184 180 178 167 150 127 98 83 77 67 60 62 61 63 65 68 69 70 69 74 83 86 85 87 90 93 98 106 110 115 119 126
228 226 223 222 218 213 213 214 213 208 199 196 195 195 190 166 158 190 187 105 47 30 39 40 45 49 58 67 72 76 77 79 79 80 84 90 99 104 111 117 119 123 128
226 221 218 220 219 217 215 216 216 217 213 209 205 199 200 204 209 228 236 236 239 235 210 155 105 57 57 62 71 72 71 79 88 95 102 114 120 120 120 122 123 125 127
225 222 217 218 218 218 217 214 215 219 220 219 215 212 215 221 230 235 239 243 244 243 247 243 243 248 272 338 25 40 40 60 86 107 117 131 134 136 137 141 146 149 156
224 221 217 218 218 217 218 217 216 218 221 224 226 228 229 231 236 238 239 242 243 245 248 250 253 252 254 257 264 271 310 311 300 242 212 183 169 163 162 164 167 172 177
221 219 216 216 218 216 217 217 218 219 221 225 228 232 234 235 238 239 239 241 243 243 242 244 246 247 248 250 255 251 248 251 251 243 233 223 211 203 202 197 197 195 188
219 216 214 214 217 216 217 218 219 221 223 226 229 232 233 234 237 241 242 241 240 241 242 243 245 246 249 249 249 248 249 250 243 238 236 233 229 224 221 220 220 210 199
216 215 212 212 215 217 217 219 221 222 225 228 231 234 237 239 241 245 246 246 245 243 243 243 245 245 246 246 247 250 253 253 247 242 239 236 231 228 228 230 227 219 212
Wind_Speed_850mb
42 46 55 56 54 48 44 46 45 42 45 43 43 47 45 44 45 49 52 53 53 56 63 66 71 65 71 78 75 74 76 77 76 67 66 70 55 60 61 61 55 60 69
38 46 52 52 49 44 42 39 36 40 40 39 41 44 43 44 42 44 49 50 54 56 56 60 70 66 73 69 73 72 73 77 75 69 65 57 62 49 50 59 67 68 72
35 44 49 47 43 40 38 36 33 36 35 35 38 41 43 45 47 44 46 48 50 50 54 63 66 62 57 62 64 67 69 69 73 73 72 70 64 62 50 37 45 43 54
32 41 44 43 40 36 34 35 35 32 35 36 37 40 41 43 48 45 45 46 47 48 48 51 54 53 63 58 59 59 51 61 74 71 71 69 72 69 63 51 48 38 59
27 37 41 38 35 33 29 29 28 28 30 32 33 34 35 37 36 42 42 40 41 39 38 44 48 41 52 48 56 54 58 55 51 68 74 70 71 66 61 56 56 46 38
25 33 39 30 29 28 27 25 26 27 29 28 26 29 30 28 28 34 32 33 32 29 32 35 37 36 40 39 40 50 56 51 50 31 68 69 71 59 55 53 49 44 32
24 25 29 26 22 24 28 26 25 26 28 28 26 25 29 27 28 26 23 23 25 26 28 29 22 21 25 26 28 27 36 46 45 38 42 45 57 46 41 50 54 47 34
22 19 15 20 22 22 25 26 25 24 27 28 27 25 25 27 26 23 20 16 15 14 15 14 13 11 13 16 18 19 25 29 32 46 32 42 35 40 43 37 43 39 25
24 22 22 22 22 21 22 24 25 24 22 24 24 27 30 30 27 26 21 21 23 27 35 33 19 7 4 8 11 14 19 24 22 32 40 32 36 24 39 41 52 56 56
25 23 25 24 21 19 17 16 20 22 23 22 22 27 30 33 33 31 32 36 41 46 52 52 46 35 15 5 5 10 14 16 19 27 33 29 23 18 27 37 48 57 68
25 22 23 22 21 16 16 13 13 13 16 18 24 26 27 28 30 30 33 35 40 42 47 52 53 47 41 29 18 13 13 19 23 29 34 31 22 19 26 32 37 52 64
25 23 23 19 20 14 15 13 7 9 6 8 12 20 26 26 26 28 31 32 31 32 40 41 40 41 45 48 46 36 26 23 30 33 36 37 31 25 23 25 34 39 44
27 25 23 18 19 14 12 12 4 3 4 4 8 16 23 28 32 33 33 33 32 34 37 35 31 36 40 46 45 44 42 38 39 42 45 43 37 32 30 32 32 34 32
31 29 25 21 21 16 15 13 8 4 1 1 6 15 19 21 26 29 31 32 34 34 34 32 32 34 38 42 43 48 55 55 57 58 56 51 46 45 43 38 34 41 40
38 34 30 26 22 21 18 17 12 7 5 5 10 14 16 17 23 24 23 26 28 30 28 27 30 34 38 41 41 41 44 48 52 54 52 51 50 48 47 43 42 43 49
48 41 37 33 28 27 25 22 17 13 10 9 10 13 14 17 19 18 19 22 25 24 19 27 33 36 40 39 38 39 39 39 39 36 36 35 35 36 40 41 42 45 52
56 49 43 41 37 33 31 25 21 17 14 11 12 11 11 13 14 15 15 18 19 18 20 28 32 34 36 36 36 35 37 39 35 34 35 36 36 38 38 40 40 41 47
61 56 50 47 44 39 34 31 27 22 18 16 13 13 10 8 9 11 11 13 14 16 20 24 28 30 30 31 31 31 32 31 30 31 32 34 33 32 34 36 35 34 35
66 67 59 54 52 45 40 38 34 29 24 22 18 14 13 11 7 5 7 9 10 13 17 18 22 23 22 23 24 24 24 26 26 23 25 26 28 24 28 29 29 28 27
68 71 64 61 59 55 51 45 41 36 32 28 24 19 16 12 7 4 2 1 2 4 7 9 11 12 14 17 19 19 17 19 19 19 21 21 23 22 24 24 23 23 23
71 77 73 68 66 64 58 51 43 39 34 30 27 22 14 10 10 8 7 6 5 3 1 1 1 3 6 8 10 12 11 12 13 13 14 15 15 14 15 15 15 15 15
74 81 83 77 73 70 65 57 49 44 38 35 29 24 21 19 17 15 13 11 10 9 7 5 3 2 1 2 3 5 6 6 6 7 8 9 10 11 11 12 12 13 14
79 83 88 83 77 72 68 62 56 50 42 36 31 28 24 23 23 21 18 18 16 15 13 11 11 9 7 5 3 2 2 2 2 2 3 6 7 9 10 10 9 10 11
84 86 91 86 81 76 72 66 61 53 46 41 36 33 29 28 27 26 23 22 22 21 19 18 17 15 14 13 9 8 8 8 8 9 10 10 10 10 8 8 8 9 10
86 88 92 90 82 76 72 67 62 56 51 45 40 36 33 32 31 29 27 26 26 25 23 21 21 21 20 18 17 16 14 14 15 16 17 17 15 14 13 12 11 12 13
85 87 88 87 81 77 72 69 64 58 53 47 41 37 34 32 31 31 29 28 27 27 26 25 25 26 25 23 21 20 19 19 19 20 21 21 20 19 17 16 15 15 18
Wind_Direction_850mb
311 314 318 320 318 313 307 306 303 307 305 307 304 299 295 294 293 291 286 284 277 274 271 267 266 276 271 258 258 256 253 252 253 257 258 257 257 241 246 248 247 262 258
313 319 323 321 317 315 309 308 311 307 305 306 304 304 303 298 293 290 288 281 281 277 273 272 269 273 273 260 253 254 254 251 249 252 256 259 251 251 250 239 242 254 252
316 323 326 324 324 317 312 312 308 308 307 307 303 299 301 300 301 300 297 289 281 281 278 277 271 267 270 261 256 255 250 249 247 248 252 248 251 243 241 254 257 259 252
318 328 330 333 330 325 322 320 315 313 311 307 304 302 300 298 296 301 297 296 292 285 283 279 273 263 258 262 250 246 244 246 247 244 242 243 244 252 241 244 262 275 264
314 332 339 337 337 336 332 328 328 327 323 321 321 317 312 305 307 305 303 308 303 294 288 285 274 266 243 253 251 252 243 253 233 241 239 237 237 240 241 226 234 230 237
304 331 339 343 344 347 342 340 339 341 342 342 344 340 335 332 325 315 310 305 308 305 301 296 274 268 256 245 254 249 245 247 248 273 225 229 232 239 232 221 220 205 215
297 319 340 349 346 357 355 355 353 351 352 359 358 354 356 358 350 344 342 324 311 305 298 299 289 265 248 242 247 251 249 248 244 239 239 242 235 231 218 222 206 210 217
287 293 322 358 356 5 8 3 7 5 7 10 9 8 18 18 8 4 359 356 351 356 352 327 304 284 252 240 242 248 251 246 247 230 238 246 243 228 215 208 206 201 183
280 279 282 309 323 352 12 10 8 15 20 18 19 23 32 38 30 32 35 43 49 55 57 47 35 8 259 232 226 240 242 234 235 234 241 232 234 216 220 201 198 187 167
279 277 282 297 310 307 321 355 13 17 20 19 25 33 38 46 52 50 56 64 62 57 55 52 47 46 51 94 198 184 179 173 188 201 213 215 207 189 169 207 190 186 173
280 275 278 290 293 306 316 323 323 336 14 29 35 39 41 42 46 48 50 48 46 49 52 49 46 47 60 72 91 123 140 137 147 163 187 196 199 172 166 167 182 193 183
278 272 271 276 282 286 298 299 344 350 342 12 44 33 40 49 51 47 49 51 53 57 60 59 56 52 58 63 67 73 86 123 134 132 133 140 155 165 172 172 181 186 186
271 266 263 263 268 264 270 274 258 342 8 30 55 51 51 53 54 54 54 52 53 54 57 61 64 65 66 73 76 80 86 95 110 120 116 114 122 132 134 148 160 176 183
261 261 253 249 255 248 253 258 251 224 272 33 82 74 63 62 64 62 61 60 58 60 61 61 59 64 70 73 79 80 82 84 89 93 98 105 114 123 128 131 140 142 144
251 252 246 239 239 240 237 243 234 201 169 120 102 93 84 74 69 66 66 68 63 59 60 69 74 74 75 78 80 81 83 87 87 92 97 103 106 112 119 130 137 145 142
244 244 241 232 228 234 227 226 215 190 157 123 103 98 88 82 77 69 66 67 64 62 62 68 72 75 77 76 75 79 82 83 88 94 97 100 104 107 109 112 121 129 131
241 238 234 227 221 224 229 222 211 187 170 147 126 112 98 86 82 74 68 70 72 68 65 76 76 74 73 73 76 79 81 81 83 87 91 95 100 105 112 116 120 125 127
237 232 232 228 219 219 222 215 209 194 181 168 154 142 129 118 103 90 79 70 64 63 58 63 66 67 70 73 75 76 76 80 83 86 90 91 91 96 104 108 113 119 126
232 226 226 223 219 216 215 215 211 201 192 184 180 178 167 150 127 98 83 77 67 60 62 61 63 65 68 69 70 69 74 83 86 85 87 90 93 98 106 110 115 119 126
228 226 223 222 218 213 213 214 213 208 199 196 195 195 190 166 158 190 187 105 47 30 39 40 45 49 58 67 72 76 77 79 79 80 84 90 99 104 111 117 119 123 128
226 221 218 220 219 217 215 216 216 217 213 209 205 199 200 204 209 228 236 236 239 235 210 155 105 57 57 62 71 72 71 79 88 95 102 114 120 120 120 122 123 125 127
225 222 217 218 218 218 217 214 215 219 220 219 215 212 215 221 230 235 239 243 244 243 247 243 243 248 272 338 25 40 40 60 86 107 117 131 134 136 137 141 146 149 156
224 221 217 218 218 217 218 217 216 218 221 224 226 228 229 231 236 238 239 242 243 245 248 250 253 252 254 257 264 271 310 311 300 242 212 183 169 163 162 164 167 172 177
221 219 216 216 218 216 217 217 218 219 221 225 228 232 234 235 238 239 239 241 243 243 242 244 246 247 248 250 255 251 248 251 251 243 233 223 211 203 202 197 197 195 188
219 216 214 214 217 216 217 218 219 221 223 226 229 232 233 234 237 241 242 241 240 241 242 243 245 246 249 249 249 248 249 250 243 238 236 233 229 224 221 220 220 210 199
216 215 212 212 215 217 217 219 221 222 225 228 231 234 237 239 241 245 246 246 245 243 243 243 245 245 246 246 247 250 253 253 247 242 239 236 231 228 228 230 227 219 212